Campeche, Mexico

9:04 AM CST on November 19, 2017 (GMT -0600)
Alberto Acuna Ongay

Weather History for MMCP - March, 2013

Change the Weather History Date:

Saturday, March 16, 2013

  Actual Average Record
Temperature  
Mean Temperature 76 °F -  
Max Temperature 92 °F 89 °F 101 °F (2014)
Min Temperature 61 °F 70 °F 55 °F (1999)
Cooling Degree Days 12    
Growing Degree Days 26 (Base 50)    
Moisture  
Dew Point 62 °F    
Average Humidity 63    
Maximum Humidity 81    
Minimum Humidity 33    
Precipitation  
Precipitation 0.00 in - - ()
Sea Level Pressure  
Sea Level Pressure 29.97 in    
Wind  
Wind Speed 6 mph ()    
Max Wind Speed 17 mph    
Max Gust Speed -    
Visibility 6.4 miles    
Events      
Averages and records for this station are not official NWS values.
T = Trace of Precipitation, MM = Missing Value Source: Averaged Metar Reports

Daily Weather History Graph

Daily Weather History Graph

Search for Another Location

Airport or City:

Trip Planner

Search our weather history database for the weather conditions in past years. The results will help you decide how hot, cold, wet, or windy it might be!

Date:

Astronomy

Mar. 16, 2013 Rise Set
Actual Time 6:09 AM CST 6:11 PM CST
Civil Twilight 5:47 AM CST 6:33 PM CST
Nautical Twilight 5:21 AM CST 6:59 PM CST
Astronomical Twilight 4:56 AM CST 7:25 PM CST
Moon 9:18 AM CST (3/16) 10:39 PM CST (3/16)
Length of Visible Light 12h 46m
Length of Day
12h 02m
Waxing Crescent, 23% of the Moon is Illuminated
Mar 16
Waxing Crescent
Mar 19
First Quarter
Mar 27
Full
Apr 2
Last Quarter
Apr 10
New

Hourly Weather History & Observations

Time (CST) Temp. Heat Index Dew Point Humidity Pressure Visibility Wind Dir Wind Speed Gust Speed Precip Events Conditions
2:50 AM 66 °F - 59 °F 72% 30.03 in 4 mi ESE 6.7 mph - -   Partly Cloudy
5:12 AM 66.2 °F - 57.2 °F 73% 30.02 in 7.0 mi Calm Calm - N/A   Scattered Clouds
5:45 AM 66.2 °F - 57.2 °F 73% 30.02 in 7.0 mi Calm Calm - N/A   Scattered Clouds
5:50 AM 63 °F - 59 °F 81% 30.03 in 4 mi Calm Calm - -   Mostly Cloudy
6:49 AM 66.2 °F - 57.2 °F 73% 30.04 in 7.0 mi ESE 5.8 mph - N/A   Scattered Clouds
7:42 AM 68.0 °F - 59.0 °F 73% 30.05 in 7.0 mi ESE 9.2 mph - N/A   Scattered Clouds
8:48 AM 77 °F - 62 °F 51% 30.05 in 6 mi ESE 11.2 mph - -   Partly Cloudy
8:49 AM 73.4 °F - 60.8 °F 65% 30.06 in 7.0 mi East 11.5 mph - N/A   Scattered Clouds
9:45 AM 77.0 °F - 60.8 °F 57% 30.04 in 7.0 mi East 13.8 mph - N/A   Scattered Clouds
10:50 AM 80.6 °F 81.5 °F 60.8 °F 51% 30.03 in 7.0 mi ESE 5.8 mph - N/A   Scattered Clouds
11:45 AM 82.4 °F 82.5 °F 59.0 °F 45% 29.99 in 7.0 mi ESE 11.5 mph - N/A   Scattered Clouds
11:50 AM 87 °F - 63 °F 35% 29.99 in 6 mi ESE 11.2 mph - -   Partly Cloudy
12:50 PM 86.0 °F 84.5 °F 55.4 °F 35% 29.95 in 7.0 mi East 11.5 mph - N/A   Scattered Clouds
1:52 PM 87.8 °F 86.1 °F 55.4 °F 33% 29.92 in 7.0 mi SE 5.8 mph - N/A   Scattered Clouds
2:45 PM 83 °F - 65 °F 45% 29.90 in 6 mi West 8.9 mph - -  
2:47 PM 78.8 °F - 62.6 °F 57% 29.90 in 7.0 mi NNW 17.3 mph - N/A   Partly Cloudy
3:51 PM 78.8 °F - 62.6 °F 57% 29.87 in 7.0 mi NNW 6.9 mph - N/A   Partly Cloudy
4:47 PM 77.0 °F - 64.4 °F 65% 29.88 in 7.0 mi North 11.5 mph - N/A   Partly Cloudy
5:40 PM 75.2 °F - 68.0 °F 78% 29.89 in 7.0 mi NNW 12.7 mph - N/A   Partly Cloudy
5:45 PM 77 °F - 69 °F 68% 29.90 in 6 mi WNW 6.7 mph - -   Partly Cloudy
6:48 PM 75.2 °F - 66.2 °F 73% 29.91 in 7.0 mi NNW 5.8 mph - N/A   Partly Cloudy
7:43 PM 75.2 °F - 66.2 °F 73% 29.93 in 7.0 mi North 5.8 mph - N/A   Partly Cloudy
8:45 PM 75 °F - 68 °F 74% 29.95 in 4 mi Calm Calm - -   Partly Cloudy
8:48 PM 75.2 °F - 66.2 °F 73% 29.95 in 7.0 mi NNW 4.6 mph - N/A   Partly Cloudy
9:40 PM 73.4 °F - 66.2 °F 78% 29.96 in 7.0 mi Calm Calm - N/A   Partly Cloudy
10:44 PM 71.6 °F - 64.4 °F 78% 29.96 in 7.0 mi Calm Calm - N/A   Clear
11:48 PM 73 °F - 64 °F 66% 29.95 in 4 mi ESE 4.5 mph - -